Regional Weather Roundup
Issued by NWS

Home | Current Version | Previous Version | Text Only | Print | Product List | Glossary On
Versions: 1 2 3 4 5 6 7 8 9 10 11 12 13 14 15 16 17 18 19 20 21 22 23 24 25 26 27 28 29 30 31 32 33 34 35 36 37 38 39 40 41 42 43 44 45 46 47 48 49 50
000
ASUS43 KLOT 061408
RWRIL

ILLINOIS REGIONAL WEATHER ROUNDUP
NATIONAL WEATHER SERVICE CHICAGO/ROMEOVILLE IL
900 AM CDT FRI MAY 06 2016

NOTE: "FAIR" INDICATES FEW OR NO CLOUDS BELOW 12,000 FEET WITH NO
SIGNIFICANT WEATHER AND/OR OBSTRUCTIONS TO VISIBILITY.

* THESE STATIONS ARE NOT UNDER NWS QUALITY CONTROL. THEY ALSO MAY NOT
  REPORT WEATHER SUCH AS PRECIPITATION OR FOG.

ILZ001-002-007-009-015-016-024-061500-
NORTHWEST ILLINOIS

CITY           SKY/WX    TMP DP  RH WIND       PRES   REMARKS
MOLINE         SUNNY     65  41  41 SW7       30.01F
STERLING*      SUNNY     57  43  58 SW5       30.02F
SAVANNA*       SUNNY     61  44  53 SW7       30.00F
$$

ILZ003-004-008-010-011-017-018-061500-
NORTH CENTRAL ILLINOIS

CITY           SKY/WX    TMP DP  RH WIND       PRES   REMARKS
ROCKFORD       PTSUNNY   62  42  47 VRB6      30.02S
FREEPORT*      SUNNY     60  41  49 SW13      30.01S
ROCHELLE*      MOSUNNY   62  43  50 SW13      30.01F
DE KALB*       MOSUNNY   62  42  47 W8        30.01F
$$

ILZ005-006-012>014-019>023-061500-
NORTHEAST ILLINOIS

CITY           SKY/WX    TMP DP  RH WIND       PRES   REMARKS
CHICAGO-OHARE  PTSUNNY   58  42  55 W8        29.99S
CHICAGO-MIDWAY PTSUNNY   63  40  42 W10       30.00S
AURORA         CLOUDY    61  48  62 SW5       30.01R
LANSING*       MOSUNNY   59  46  61 W5        30.01S
JOLIET*        CLOUDY    55  47  73 SW3       30.02S
WAUKEGAN       PTSUNNY   60  42  51 SW7       29.98R
DUPAGE AIRPORT CLOUDY    57  43  59 W8        29.99S
KANKAKEE*      SUNNY     62  42  49 W8        30.03R
WHEELING       MOSUNNY   60  42  51 CALM      30.00S
MORRIS*        CLOUDY    57  42  58 W9        30.01S
ROMEOVILLE*    CLOUDY    55  44  67 W3        30.01S
NORTHERLY ISL    N/A     61  39  44 W9          N/A
NORTHERLY ISL    N/A     61  39  44 W9          N/A
$$

LMZ740>746-061500-
SOUTHERN LAKE MICHIGAN

STATION/POSITION SKY/WX   TEMP    WIND        PRES    VSBY  WAVE
                          AIR SEA DIR/SP/G                  HT/PER
                          (F)     (DEG/KT/KT) (MB)    (MI)  (FT/S)
SOUTHERN BUOY              44 40  190/  8/  8 1015.2          1
WILMETTE HARBOR            53 44  280/  4/  4   N/A           1/ 5
HARRISON CRIB              56     270/  9/ 10   N/A
BURNHAM HARBOR             62     250/  6/ 11   N/A
CALUMET HARBOR             54     230/  3/  5 1015.1S
BURNS HARBOR               52     190/  4/  8 1016.6S
MICHIGAN CITY              48     170/  6/  6   N/A
ST. JOSEPH                 47 48                N/A           1/ 4
$$

ILZ025>027-034>036-040-047-049-050-058-095>099-061500-
WEST-CENTRAL ILLINOIS

CITY           SKY/WX    TMP DP  RH WIND       PRES   REMARKS
QUINCY         SUNNY     60  42  51 W10       30.07S
GALESBURG*     SUNNY     63  43  47 W9        30.05R
MACOMB*        SUNNY     62  40  44 SW9       30.08R
JACKSONVILLE*  SUNNY     62  43  50 W8        30.08S
PITTSFIELD*    SUNNY     62  42  48 W9        30.09R
$$

ILZ028>032-037-038-041>044-048-051>054-059>061-061500-
CENTRAL ILLINOIS

CITY           SKY/WX    TMP DP  RH WIND       PRES   REMARKS
PONTIAC        CLOUDY    58  48  69 W5        30.04S
BLOOMINGTON    CLOUDY    60  42  51 W8        30.06R
DECATUR        MOSUNNY   61  40  45 W6        30.06R
PEORIA         CLOUDY    59  45  59 W5        30.05F
LACON*         SUNNY     58  44  59 W3        30.04S
LINCOLN*       PTSUNNY   58  43  57 W5        30.06S
SPRINGFIELD    MOSUNNY   62  42  47 W10       30.07S
TAYLORVILLE    PTSUNNY   58  44  61 W7        30.07S
$$

ILZ033-039-045-046-055>057-062-063-061500-
EAST-CENTRAL ILLINOIS

CITY           SKY/WX    TMP DP  RH WIND       PRES   REMARKS
CHAMPAIGN      SUNNY     60  44  55 W10       30.06R
RANTOUL*       SUNNY     63  44  50 W12       30.04S
MATTOON        SUNNY     58  44  60 NW8       30.05R
PARIS*         SUNNY     59  49  68 W3        30.06R
$$

ILZ079-100>102-061500-
SOUTHWEST ILLINOIS

CITY           SKY/WX    TMP DP  RH WIND       PRES   REMARKS
ALTON          SUNNY     59  45  58 W7        30.09R
BELLEVILLE     SUNNY     62  47  56 NW7       30.07S
CAHOKIA*       SUNNY     58  45  62 W5        30.09R
SPARTA*        SUNNY     56  47  70 W5        30.10S
$$

ILZ064>066-069>071-074>076-080>082-084>086-088>090-092>094-061500-
SOUTH-CENTRAL ILLINOIS

CITY           SKY/WX    TMP DP  RH WIND       PRES   REMARKS
CARBONDALE     SUNNY     60  47  61 NW6       30.09R
CAIRO*         SUNNY     60  48  63 NW5       30.09S
EFFINGHAM*     SUNNY     59  48  66 W5        30.08S
MARION         SUNNY     59  46  63 NW6       30.09S
MT. VERNON     SUNNY     57  48  72 CALM      30.09R
CENTRALIA*     SUNNY     59  47  64 W6        30.08R
SALEM*         SUNNY     60  49  68 W3        30.08S
METROPOLIS*    SUNNY     60  50  70 NW6       30.09R
$$

ILZ067-068-072-073-078-083-087-091-061500-
SOUTHEAST ILLINOIS

CITY           SKY/WX    TMP DP  RH WIND       PRES   REMARKS
LAWRENCEVILLE  SUNNY     59  49  69 NW6       30.06R
FLORA*         SUNNY     61  47  60 NW7       30.07S
FAIRFIELD*     SUNNY     60  48  64 CALM      30.06S
HARRISBURG*    SUNNY     60  51  73 NW5       30.08S
ROBINSON*      SUNNY     58  48  71 NW5       30.06S
CARMI*         SUNNY     57  49  76 W6        30.07R
$$

ABBREVIATIONS USED IN REMARKS
   TC - TEMPERATURE IN CELSIUS
  WCI - WIND CHILL INDEX
   HX - HEAT INDEX
  VSB - VISIBILITY
$$





USA.gov is the U.S. government's official web portal to all federal, state and local government web resources and services.